User: anonymous   Login
Location: Audinghen
(50.8518°N, 1.6129°E)
Time: 11:22:09
(UTC+00:00)
Language:

SL-4 R/B - Orbit

View from above orbital plane
View from above orbital plane
View from above satellite
View from above satellite

Ground track
Ground track

The orbit data is extracted from the following two-line orbital elements,

1 39679U 14021B   20299.53535524 +.00000946 +00000-0 +63402-4 0  9994
2 39679 051.6156 223.7010 0171959 036.7189 324.5420 15.06546856358957
Epoch (UTC): 25 October 2020 12:50:54
Eccentricity: 0.0171959
inclination: 51.6156°
perigee height: 427 km
apogee height: 666 km
right ascension of ascending node: 223.7010°
argument of perigee: 36.7189°
revolutions per day: 15.06546856
mean anomaly at epoch: 324.5420°
orbit number at epoch: 35895

The dashed part of the orbit path shows where the satellite is in the earth's shadow,  

DLR